When you browse on this site, cookies collect data to enhance your experience and personalize the content and advertising you see.
Visit our Privacy Policy to learn more. By continuing to use the site, you agree to this use of cookies and data.
  • In Switzerland
  • List of Countries
  • For 7 days
  • Water Temperature
  • Satellite Maps
  • Weather Map
  • Weather Widgets
  • user-avatar
    Login

    Hourly Weather Macapa

    Today, 24 January, Thursday

    Time Temperature Precipitation Wind Pressure Humidity
    00:00 +26°C° 0.1 mm 3 mps 759 mmHg 91%
    01:00 +26°C° 0 mm 3 mps 759 mmHg 92%
    02:00 +26°C° 0 mm 3 mps 759 mmHg 92%
    03:00 +26°C° 0 mm 3 mps 759 mmHg 93%
    04:00 +26°C° 0 mm 3 mps 759 mmHg 93%
    05:00 +26°C° 0 mm 2 mps 759 mmHg 93%
    06:00 +26°C° 0 mm 2 mps 759 mmHg 93%
    07:00 +26°C° 0 mm 2 mps 759 mmHg 91%
    08:00 +26°C° 0 mm 2 mps 759 mmHg 89%
    09:00 +27°C° 0 mm 3 mps 759 mmHg 87%
    10:00 +29°C° 0 mm 2 mps 759 mmHg 79%
    11:00 +30°C° 0 mm 2 mps 759 mmHg 72%
    12:00 +32°C° 0 mm 2 mps 759 mmHg 64%
    13:00 +32°C° 0.1 mm 2 mps 759 mmHg 63%
    14:00 +34°C° 0.1 mm 2 mps 758 mmHg 61%
    15:00 +34°C° 0.1 mm 2 mps 757 mmHg 60%
    16:00 +32°C° 0.5 mm 2 mps 757 mmHg 67%
    17:00 +31°C° 0.5 mm 2 mps 757 mmHg 74%
    18:00 +29°C° 0.5 mm 2 mps 757 mmHg 82%
    19:00 +29°C° 0.6 mm 3 mps 758 mmHg 85%
    20:00 +28°C° 0.6 mm 3 mps 758 mmHg 88%
    21:00 +27°C° 0.6 mm 3 mps 759 mmHg 91%
    22:00 +27°C° 0 mm 3 mps 759 mmHg 91%
    23:00 +26°C° 0 mm 3 mps 760 mmHg 91%

    Tomorrow, 25 January, Friday

    Time Temperature Precipitation Wind Pressure Humidity
    00:00 +26°C° 0 mm 3 mps 760 mmHg 91%
    01:00 +26°C° 0 mm 3 mps 759 mmHg 92%
    02:00 +26°C° 0 mm 2 mps 759 mmHg 92%
    03:00 +26°C° 0 mm 2 mps 758 mmHg 92%
    04:00 +25°C° 0 mm 2 mps 758 mmHg 93%
    05:00 +25°C° 0 mm 2 mps 758 mmHg 93%
    06:00 +25°C° 0 mm 2 mps 758 mmHg 93%
    07:00 +26°C° 0 mm 2 mps 759 mmHg 90%
    08:00 +27°C° 0 mm 2 mps 759 mmHg 86%
    09:00 +28°C° 0 mm 2 mps 760 mmHg 82%
    10:00 +29°C° 0.4 mm 2 mps 760 mmHg 79%
    11:00 +30°C° 0.4 mm 2 mps 760 mmHg 76%
    12:00 +31°C° 0.4 mm 2 mps 760 mmHg 73%
    13:00 +31°C° 1.2 mm 2 mps 759 mmHg 74%
    14:00 +31°C° 1.2 mm 2 mps 758 mmHg 75%
    15:00 +31°C° 1.2 mm 2 mps 757 mmHg 76%
    16:00 +30°C° 0.7 mm 2 mps 757 mmHg 79%
    17:00 +29°C° 0.7 mm 2 mps 757 mmHg 81%
    18:00 +29°C° 0.7 mm 2 mps 757 mmHg 83%
    19:00 +28°C° 0.1 mm 2 mps 757 mmHg 86%
    20:00 +27°C° 0.1 mm 3 mps 758 mmHg 88%
    21:00 +27°C° 0.1 mm 3 mps 759 mmHg 90%
    22:00 +26°C° 0 mm 2 mps 759 mmHg 90%
    23:00 +26°C° 0 mm 2 mps 759 mmHg 91%

    Day after tomorrow, 26 January, Saturday

    Time Temperature Precipitation Wind Pressure Humidity
    00:00 +26°C° 0 mm 2 mps 759 mmHg 92%
    01:00 +26°C° 0 mm 2 mps 759 mmHg 92%
    02:00 +26°C° 0 mm 2 mps 758 mmHg 93%
    03:00 +26°C° 0 mm 2 mps 758 mmHg 93%
    04:00 +25°C° 0.1 mm 1 mps 758 mmHg 94%
    05:00 +25°C° 0.1 mm 1 mps 758 mmHg 95%
    06:00 +25°C° 0.1 mm 1 mps 758 mmHg 95%
    07:00 +26°C° 0 mm 1 mps 759 mmHg 91%
    08:00 +27°C° 0 mm 1 mps 759 mmHg 87%
    09:00 +28°C° 0 mm 1 mps 760 mmHg 83%
    10:00 +30°C° 0.1 mm 1 mps 760 mmHg 76%
    11:00 +31°C° 0.1 mm 1 mps 760 mmHg 68%
    12:00 +33°C° 0.1 mm 1 mps 759 mmHg 61%
    13:00 +32°C° 0.4 mm 2 mps 758 mmHg 62%
    14:00 +32°C° 0.4 mm 2 mps 758 mmHg 64%
    15:00 +32°C° 0.4 mm 2 mps 757 mmHg 66%
    16:00 +31°C° 0.6 mm 2 mps 756 mmHg 71%
    17:00 +30°C° 0.6 mm 2 mps 756 mmHg 77%
    18:00 +29°C° 0.6 mm 2 mps 756 mmHg 83%
    19:00 +28°C° 0.2 mm 2 mps 757 mmHg 85%
    20:00 +27°C° 0.2 mm 2 mps 758 mmHg 88%
    21:00 +27°C° 0.2 mm 2 mps 759 mmHg 91%
    22:00 +27°C° 0.2 mm 2 mps 759 mmHg 91%
    23:00 +26°C° 0.2 mm 2 mps 759 mmHg 92%

    27 January, Sunday

    Time Temperature Precipitation Wind Pressure Humidity
    00:00 +26°C° 0.2 mm 2 mps 759 mmHg 92%
    01:00 +26°C° 0 mm 2 mps 758 mmHg 93%
    02:00 +26°C° 0 mm 2 mps 758 mmHg 94%
    03:00 +26°C° 0 mm 2 mps 757 mmHg 95%
    04:00 +26°C° 0 mm 2 mps 757 mmHg 95%
    05:00 +26°C° 0 mm 2 mps 757 mmHg 95%
    06:00 +25°C° 0 mm 2 mps 758 mmHg 95%
    07:00 +26°C° 0 mm 2 mps 758 mmHg 92%
    08:00 +27°C° 0 mm 2 mps 759 mmHg 89%
    09:00 +28°C° 0 mm 2 mps 760 mmHg 86%
    10:00 +29°C° 1 mm 2 mps 760 mmHg 83%
    11:00 +30°C° 1 mm 2 mps 759 mmHg 80%
    12:00 +30°C° 1 mm 2 mps 759 mmHg 78%
    13:00 +31°C° 1.6 mm 2 mps 758 mmHg 76%
    14:00 +31°C° 1.6 mm 2 mps 758 mmHg 74%
    15:00 +31°C° 1.6 mm 2 mps 757 mmHg 72%
    16:00 +31°C° 0.1 mm 2 mps 757 mmHg 73%
    17:00 +30°C° 0.1 mm 3 mps 757 mmHg 74%
    18:00 +30°C° 0.1 mm 3 mps 757 mmHg 75%
    19:00 +29°C° 0.2 mm 3 mps 757 mmHg 80%
    20:00 +28°C° 0.2 mm 3 mps 758 mmHg 85%
    21:00 +27°C° 0.2 mm 3 mps 758 mmHg 89%
    22:00 +27°C° 0 mm 3 mps 758 mmHg 90%
    23:00 +27°C° 0 mm 3 mps 758 mmHg 91%

    28 January, Monday

    Time Temperature Precipitation Wind Pressure Humidity
    00:00 +26°C° 0 mm 2 mps 758 mmHg 91%
    01:00 +26°C° 0 mm 2 mps 758 mmHg 92%
    02:00 +26°C° 0 mm 2 mps 757 mmHg 92%
    03:00 +26°C° 0 mm 2 mps 757 mmHg 92%
    04:00 +26°C° 0.1 mm 1 mps 757 mmHg 93%
    05:00 +26°C° 0.1 mm 1 mps 757 mmHg 93%
    06:00 +26°C° 0.1 mm 1 mps 757 mmHg 94%
    07:00 +27°C° 0.2 mm 1 mps 758 mmHg 91%
    08:00 +27°C° 0.2 mm 1 mps 758 mmHg 89%
    09:00 +28°C° 0.2 mm 1 mps 759 mmHg 86%
    10:00 +29°C° 0.3 mm 2 mps 758 mmHg 81%
    11:00 +30°C° 0.3 mm 2 mps 758 mmHg 75%
    12:00 +31°C° 0.3 mm 3 mps 758 mmHg 69%
    13:00 +31°C° 1.1 mm 3 mps 757 mmHg 72%
    14:00 +31°C° 1.1 mm 3 mps 757 mmHg 74%
    15:00 +31°C° 1.1 mm 3 mps 756 mmHg 76%
    16:00 +30°C° 1.9 mm 3 mps 756 mmHg 81%
    17:00 +29°C° 1.9 mm 3 mps 756 mmHg 85%
    18:00 +28°C° 1.9 mm 3 mps 756 mmHg 90%
    19:00 +27°C° 0.4 mm 3 mps 757 mmHg 91%
    20:00 +27°C° 0.4 mm 3 mps 757 mmHg 92%
    21:00 +27°C° 0.4 mm 3 mps 758 mmHg 93%
    22:00 +26°C° 0.1 mm 2 mps 758 mmHg 94%
    23:00 +26°C° 0.1 mm 2 mps 758 mmHg 94%

    29 January, Tuesday

    Time Temperature Precipitation Wind Pressure Humidity
    00:00 +26°C° 0.1 mm 2 mps 758 mmHg 95%
    01:00 +26°C° 1.8 mm 2 mps 758 mmHg 95%
    02:00 +26°C° 1.8 mm 2 mps 757 mmHg 95%
    03:00 +26°C° 1.8 mm 2 mps 757 mmHg 95%
    04:00 +26°C° 0.9 mm 2 mps 757 mmHg 95%
    05:00 +26°C° 0.9 mm 1 mps 757 mmHg 95%
    06:00 +26°C° 0.9 mm 1 mps 757 mmHg 94%
    07:00 +26°C° 0.8 mm 2 mps 758 mmHg 92%
    08:00 +27°C° 0.8 mm 2 mps 758 mmHg 89%
    09:00 +28°C° 0.8 mm 2 mps 758 mmHg 86%
    10:00 +29°C° 0.9 mm 3 mps 758 mmHg 83%
    11:00 +30°C° 0.9 mm 3 mps 758 mmHg 80%
    12:00 +31°C° 0.9 mm 3 mps 758 mmHg 78%
    13:00 +32°C° 0.2 mm 4 mps 757 mmHg 73%
    14:00 +33°C° 0.2 mm 4 mps 756 mmHg 69%
    15:00 +34°C° 0.2 mm 4 mps 756 mmHg 65%
    16:00 +33°C° 0.3 mm 4 mps 755 mmHg 70%
    17:00 +31°C° 0.3 mm 3 mps 755 mmHg 75%
    18:00 +30°C° 0.3 mm 3 mps 755 mmHg 81%
    19:00 +29°C° 0 mm 3 mps 756 mmHg 83%
    20:00 +28°C° 0 mm 3 mps 756 mmHg 86%
    21:00 +27°C° 0 mm 3 mps 757 mmHg 88%
    22:00 +27°C° 0.1 mm 3 mps 757 mmHg 89%
    23:00 +27°C° 0.1 mm 2 mps 757 mmHg 90%
    Show more